Stations météo

réclame
Mon MeteoGroup
Avignon, France (7563): Température de l'air & dewpoint: 16.01.2020 10:00:00 - 22.01.2020 10:00:00 (CET)Avignon, France (7563): Température de l'air 5cm: 16.01.2020 10:00:00 - 22.01.2020 10:00:00 (CET)Avignon, France (7563): Vitesse du vent & gusts: 16.01.2020 10:00:00 - 22.01.2020 10:00:00 (CET)Avignon, France (7563): Direction du vent: 16.01.2020 10:00:00 - 22.01.2020 10:00:00 (CET)Avignon, France (7563): reduced air pressure: 16.01.2020 10:00:00 - 22.01.2020 10:00:00 (CET)Avignon, France (7563): visibility: 16.01.2020 10:00:00 - 22.01.2020 10:00:00 (CET)Avignon, France (7563): Quantités de précipitations: 16.01.2020 10:00:00 - 22.01.2020 10:00:00 (CET)
Date & Time tt [°C] td [°C] tt 5cm [°C] ff [km/h] ff [knt] fx [km/h] fx [knt] dd ppp [hPa] vv [km] rr [mm]
22.01.2020 10:00:00 5,0 2,2 4,2 7 4 23 12 N 1030,9 11 0,0
22.01.2020 09:00:00 4,5 1,7 3,3 14 8 29 16 N 1030,2 12 0,2
22.01.2020 08:00:00 4,1 1,3 3,0 19 10 29 15 N 1029,9 11 0,6
22.01.2020 07:00:00 4,3 0,6 3,3 15 8 27 14 N 1029,7 13 0,2
22.01.2020 06:00:00 5,1 -0,3 4,3 15 8 27 14 N 1030,1 19 0,0
22.01.2020 05:00:00 4,7 -0,3 4,0 16 8 27 15 N 1030,5 17 0,0
22.01.2020 04:00:00 4,8 -0,6 3,0 16 9 28 15 N 1031,3 18 0,0
22.01.2020 03:00:00 4,0 -0,8 2,3 12 6 21 11 N 1031,7 18 0,0
22.01.2020 02:00:00 4,2 -0,6 2,2 9 5 18 10 N 1032,0 17 0,0
22.01.2020 01:00:00 5,4 0,0 4,2 9 5 21 11 N 1032,2 18 0,0
22.01.2020 00:00:00 5,8 0,1 5,2 12 7 24 13 N 1033,0 18 0,0
21.01.2020 23:00:00 6,2 -0,1 5,1 14 7 21 11 N 1033,1 18 0,0
21.01.2020 22:00:00 6,1 0,4 4,0 12 6 23 13 N 1033,2 20 0,0
21.01.2020 21:00:00 5,6 0,6 4,5 11 6 21 11 N 1033,5 17 0,0
21.01.2020 20:00:00 6,3 0,2 5,6 14 8 31 17 N 1033,8 20 0,0
21.01.2020 19:00:00 6,6 0,1 5,7 16 9 31 17 NNE 1033,5 24 0,0
21.01.2020 18:00:00 6,9 1,4 6,1 18 10 35 19 N 1033,3 20 0,0
21.01.2020 17:00:00 7,5 1,6 6,8 11 6 27 15 N 1033,2 28 0,0
21.01.2020 16:00:00 7,6 2,1 7,8 9 5 16 9 NNW 1033,8 20 0,0
21.01.2020 15:00:00 7,8 1,4 8,1 10 5 21 12 NNW 1034,3 20 0,0
21.01.2020 14:00:00 6,7 1,6 5,4 8 4 17 9 NW 1035,0 20 0,0
21.01.2020 13:00:00 5,9 1,4 4,9 8 4 21 11 NNW 1035,8 20 0,0
21.01.2020 12:00:00 5,5 2,0 4,7 11 6 27 15 NNW 1036,7 17 0,0
21.01.2020 11:00:00 4,6 2,1 3,6 10 5 20 11 N 1037,0 15 0,2
21.01.2020 10:00:00 4,0 1,9 3,0 10 5 20 11 N 1036,7 10 0,9
21.01.2020 09:00:00 3,6 1,8 2,9 14 7 26 14 N 1036,2 8 1,0
21.01.2020 08:00:00 3,4 1,6 2,8 16 9 25 14 NNW 1036,0 10 0,4
21.01.2020 07:00:00 3,4 1,6 2,7 13 7 29 16 N 1036,1 9 1,0
21.01.2020 06:00:00 3,5 1,2 2,8 21 11 29 15 NNW 1035,9 10 1,2
21.01.2020 05:00:00 4,0 1,4 3,0 4 2 19 10 N 1036,6 10 0,6
21.01.2020 04:00:00 4,0 2,0 3,1 11 6 21 11 N 1036,2 13 0,6
21.01.2020 03:00:00 4,1 1,3 2,9 13 7 20 11 N 1036,4 16 0,4
21.01.2020 02:00:00 4,3 1,0 3,0 11 6 21 12 N 1036,8 13 0,4
21.01.2020 01:00:00 4,9 -0,1 3,6 10 5 19 11 NNW 1036,9 20 0,0
21.01.2020 00:00:00 5,3 -1,0 4,3 10 6 18 10 NNW 1037,5 29 0,0
20.01.2020 23:00:00 5,1 -0,9 4,3 6 3 16 8 N 1037,1 29 0,0
20.01.2020 22:00:00 5,4 -1,8 4,2 8 4 26 14 N 1036,7 13 0,0
20.01.2020 21:00:00 5,4 -1,5 4,5 13 7 26 14 N 1036,5 34 0,0
20.01.2020 20:00:00 5,7 -1,7 5,1 19 11 34 18 N 1036,1 33 0,0
20.01.2020 19:00:00 5,6 -1,3 5,1 17 9 40 21 N 1035,7 32 0,0
20.01.2020 18:00:00 5,6 -1,3 5,1 22 12 33 18 N 1034,9 29 0,0
20.01.2020 17:00:00 5,6 -0,9 5,3 21 11 35 19 N 1034,6 29 0,0
20.01.2020 16:00:00 5,8 -0,9 5,8 22 12 44 24 N 1034,6 34 0,0
20.01.2020 15:00:00 5,9 -1,1 6,1 28 15 46 25 N 1034,3 36 0,0
20.01.2020 14:00:00 6,2 -1,0 6,5 32 18 49 27 N 1034,4 40 0,0
20.01.2020 13:00:00 6,3 -1,1 6,6 29 16 45 24 N 1034,9 20 0,0
20.01.2020 12:00:00 5,7 -0,6 5,3 27 14 48 26 NNW 1035,4 36 0,0
20.01.2020 11:00:00 4,7 -1,3 4,3 29 16 52 28 NNW 1035,3 33 0,0
20.01.2020 10:00:00 3,9 -1,3 3,3 28 15 50 27 N 1035,0 17 0,0
20.01.2020 09:00:00 3,4 -1,6 2,8 29 16 48 26 N 1034,1 31 0,0
20.01.2020 08:00:00 3,2 -1,6 2,9 34 18 54 29 NNW 1033,3 39 0,0
20.01.2020 07:00:00 3,3 -1,5 3,0 29 16 51 27 N 1032,9 41 0,0
20.01.2020 06:00:00 3,4 -1,4 3,0 29 16 49 26 NNW 1032,3 43 0,0
20.01.2020 05:00:00 3,6 -1,2 3,1 29 16 49 26 N 1032,2 45 0,0
20.01.2020 04:00:00 3,7 -1,1 3,3 29 16 49 26 N 1032,2 45 0,0
20.01.2020 03:00:00 3,9 -1,3 3,5 30 16 46 25 N 1032,1 48 0,0
20.01.2020 02:00:00 4,0 -1,2 3,4 31 17 54 29 N 1031,7 48 0,0
20.01.2020 01:00:00 3,9 -1,3 3,0 31 17 51 28 N 1031,6 50 0,0
20.01.2020 00:00:00 4,0 -1,8 3,0 32 17 53 29 NNW 1031,3 60 0,0
19.01.2020 23:00:00 4,1 -2,1 3,3 29 16 52 28 N 1031,1 60 0,0
19.01.2020 22:00:00 4,5 -1,5 3,6 31 17 51 28 N 1030,6 60 0,0
19.01.2020 21:00:00 5,0 -1,3 4,1 32 18 56 30 N 1030,1 58 0,0
19.01.2020 20:00:00 5,6 -0,7 4,7 34 18 54 29 N 1029,1 57 0,0
19.01.2020 19:00:00 5,9 -0,2 4,9 35 19 55 30 N 1028,3 49 0,0
19.01.2020 18:00:00 5,9 -0,6 5,0 34 18 60 33 N 1027,9 58 0,0
19.01.2020 17:00:00 6,7 -1,0 6,3 37 20 63 34 N 1027,6 28 0,0
19.01.2020 16:00:00 7,5 -0,7 7,6 39 21 62 34 N 1027,2 48 0,0
19.01.2020 15:00:00 6,8 -0,2 7,2 34 18 62 33 N 1027,1 57 0,0
19.01.2020 14:00:00 7,5 0,2 6,7 38 21 59 32 N 1026,8 57 0,0
19.01.2020 13:00:00 6,0 -0,3 6,4 32 17 59 32 N 1027,1 36 0,0
19.01.2020 12:00:00 6,0 -0,1 6,7 29 16 54 29 N 1027,3 41 0,0
19.01.2020 11:00:00 5,8 0,5 4,4 26 14 55 30 NNW 1027,2 39 0,0
19.01.2020 10:00:00 4,3 -0,5 3,5 29 16 53 29 N 1026,5 35 0,0
19.01.2020 09:00:00 3,8 -0,8 3,3 33 18 64 35 N 1025,5 47 0,0
19.01.2020 08:00:00 3,8 -0,6 3,3 39 21 62 33 NNW 1024,9 60 0,0
19.01.2020 07:00:00 4,0 -0,4 3,3 32 17 51 27 N 1024,4 53 0,0
19.01.2020 06:00:00 4,0 0,0 2,8 22 12 38 20 N 1024,2 50 0,0
19.01.2020 05:00:00 3,7 0,0 -0,6 19 10 30 16 N 1023,9 59 0,0
19.01.2020 04:00:00 1,4 -1,0 -3,1 14 7 19 11 N 1024,1 60 0,0
19.01.2020 03:00:00 1,2 -0,9 -2,8 3 1 8 5 NNE 1024,0 60 0,0
19.01.2020 02:00:00 1,6 -1,0 -1,8 0 0 13 7 N 1023,9 60 0,0
19.01.2020 01:00:00 2,6 0,0 -1,0 9 5 18 10 N 1023,6 53 0,0
19.01.2020 00:00:00 3,8 0,7 0,9 13 7 21 11 N 1023,4 52 0,0
18.01.2020 23:00:00 4,1 0,2 0,5 9 5 23 12 N 1023,3 54 0,0
18.01.2020 22:00:00 4,1 0,1 1,2 10 6 23 12 N 1023,4 60 0,0
18.01.2020 21:00:00 5,9 0,6 4,2 13 7 34 18 N 1023,4 60 0,0
18.01.2020 20:00:00 6,5 1,0 5,3 21 11 37 20 N 1023,1 60 0,0
18.01.2020 19:00:00 6,9 1,0 5,7 21 11 36 19 N 1023,3 60 0,0
18.01.2020 18:00:00 7,7 0,6 6,3 21 12 49 26 N 1023,6 60 0,0
18.01.2020 17:00:00 9,0 1,2 8,5 31 17 56 31 N 1023,3 32 0,0
18.01.2020 16:00:00 9,7 0,8 9,3 26 14 53 29 N 1024,1 53 0,0
18.01.2020 15:00:00 10,3 1,4 11,3 31 17 51 27 NNW 1024,9 24 0,0
18.01.2020 14:00:00 10,6 1,7 11,6 35 19 62 33 NNW 1025,7 26 0,0
18.01.2020 13:00:00 9,9 1,5 10,9 40 22 65 35 NNW 1026,6 43 0,0
18.01.2020 12:00:00 9,5 2,3 8,4 27 15 46 25 NNW 1028,0 60 0,0
18.01.2020 11:00:00 8,3 2,1 7,1 24 13 42 23 NW 1028,7 60 0,0
18.01.2020 10:00:00 7,2 1,5 6,4 23 12 35 19 NW 1029,0 59 0,0
18.01.2020 09:00:00 6,9 2,0 4,7 21 12 37 20 NW 1029,1 39 0,0
18.01.2020 08:00:00 6,4 1,7 5,3 22 12 41 22 NW 1028,8 60 0,0
18.01.2020 07:00:00 6,2 2,3 5,4 23 12 40 21 WNW 1028,6 60 0,0
18.01.2020 06:00:00 6,5 2,6 5,0 20 11 33 18 WNW 1028,3 60 0,0
18.01.2020 05:00:00 6,8 2,9 5,2 21 11 39 21 NW 1028,0 60 0,0
18.01.2020 04:00:00 6,6 3,7 5,0 21 11 31 17 NW 1027,7 60 0,0
18.01.2020 03:00:00 6,6 4,4 5,2 18 10 32 17 NW 1028,3 60 0,0
18.01.2020 02:00:00 6,7 4,7 4,4 21 11 31 17 NNW 1027,8 60 0,0
18.01.2020 01:00:00 6,9 5,0 4,0 16 9 27 15 NW 1028,4 60 0,0
18.01.2020 00:00:00 7,2 5,3 5,8 11 6 31 17 WNW 1028,5 60 0,0
17.01.2020 23:00:00 8,4 5,7 7,3 23 12 34 18 NW 1027,8 60 0,0
17.01.2020 22:00:00 8,7 6,1 6,9 20 11 33 18 WNW 1027,3 60 0,0
17.01.2020 21:00:00 7,6 6,4 6,6 10 6 16 9 WNW 1026,6 50 0,0
17.01.2020 20:00:00 8,1 6,7 7,0 12 6 21 11 W 1025,7 60 0,0
17.01.2020 19:00:00 8,4 7,0 7,6 16 8 24 13 W 1024,9 60 0,0
17.01.2020 18:00:00 8,7 6,8 7,8 15 8 34 19 W 1024,1 60 2,1
17.01.2020 17:00:00 8,7 7,1 8,0 26 14 62 34 NW 1022,8 6 3,6
17.01.2020 16:00:00 10,1 9,3 9,8 10 6 21 11 NNW 1021,9 4,7 1,6
17.01.2020 15:00:00 10,9 9,0 10,0 13 7 24 13 N 1021,9 9 0,4
17.01.2020 14:00:00 12,9 8,4 12,8 8 5 30 16 E 1022,3 57 0,0
17.01.2020 13:00:00 13,5 8,8 11,7 19 11 31 17 ESE 1022,6 20 0,0
17.01.2020 12:00:00 12,5 7,4 12,2 15 8 31 17 SE 1024,2 60 0,0
17.01.2020 11:00:00 12,5 7,8 11,5 16 9 39 21 ESE 1024,5 50 0,0
17.01.2020 10:00:00 11,8 7,3 9,8 23 13 37 20 ESE 1024,3 60 0,2
17.01.2020 09:00:00 12,0 6,7 10,6 16 8 28 15 ESE 1025,0 19 0,0
17.01.2020 08:00:00 11,9 6,2 11,0 18 10 29 16 ESE 1025,6 60 0,0
17.01.2020 07:00:00 11,8 5,9 11,1 17 9 31 17 ESE 1025,7 60 0,0
17.01.2020 06:00:00 11,7 6,2 11,1 16 9 30 16 ESE 1025,8 60 0,0
17.01.2020 05:00:00 11,8 6,1 10,7 17 9 28 15 ESE 1026,0 60 0,0
17.01.2020 04:00:00 11,5 6,2 9,7 10 6 20 11 SE 1026,6 60 0,0
17.01.2020 03:00:00 11,8 6,3 10,7 14 8 24 13 ESE 1026,8 60 0,0
17.01.2020 02:00:00 11,6 6,5 10,6 9 5 24 13 SE 1027,1 60 0,0
17.01.2020 01:00:00 11,6 7,1 10,8 16 9 29 16 ESE 1027,4 60 0,0
17.01.2020 00:00:00 11,5 7,0 10,7 15 8 27 15 ESE 1027,8 60 0,0
16.01.2020 23:00:00 11,5 6,4 10,6 16 8 33 18 ESE 1027,9 60 0,0
16.01.2020 22:00:00 11,9 6,4 10,7 16 9 30 16 ESE 1028,1 60 0,0
16.01.2020 21:00:00 11,7 6,2 10,3 11 6 19 10 ESE 1028,6 8 0,0
16.01.2020 20:00:00 11,4 6,5 9,7 8 5 13 7 SE 1029,0 10 0,0
16.01.2020 19:00:00 12,2 6,5 11,2 10 5 17 9 SE 1028,7 8 0,0
16.01.2020 18:00:00 12,6 7,1 9,7 11 6 20 11 SE 1028,5 10 0,0
16.01.2020 17:00:00 13,3 6,9 12,3 8 4 19 10 SE 1028,1 4,6 0,0
16.01.2020 16:00:00 13,1 7,1 12,9 0 0 9 5 N 1028,2 18 0,0
16.01.2020 15:00:00 12,9 6,2 13,2 7 4 10 6 SSE 1028,3 60 0,0
16.01.2020 14:00:00 12,9 6,5 13,7 4 2 10 5 S 1028,7 56 0,0
16.01.2020 13:00:00 12,9 6,2 14,2 6 3 17 9 S 1029,4 52 0,0
16.01.2020 12:00:00 13,0 7,2 14,3 4 2 10 5 E 1030,0 41 0,0
16.01.2020 11:00:00 9,4 5,0 10,5 4 2 10 5 E 1030,6 20 0,0
16.01.2020 10:00:00 6,9 4,6 3,8 6 3 17 9 E 1030,5 18 0,0

tt = Température de l'air
td = dewpoint
tt 5cm = Température de l'air 5cm
ff = Vitesse du vent
fx = gusts
dd = Direction du vent
ppp = reduced air pressure
vv = visibility
rr = Quantités de précipitations

stations d'obs. à proximité